Belmar-Farmingdale, NJ

1:12 AM EST on December 08, 2019 (GMT -0500)
Allaire

Weather History for KBLM - November, 2019

Change the Weather History Date:

Tuesday, November 19, 2019

  Actual Average Record
Temperature  
Mean Temperature 45 °F -  
Max Temperature 51 °F 50 °F 64 °F (2001)
Min Temperature 39 °F 36 °F 21 °F (2014)
Degree Days  
Heating Degree Days 20    
Moisture  
Dew Point 38 °F    
Average Humidity 84    
Maximum Humidity 100    
Minimum Humidity 61    
Precipitation  
Precipitation 0.08 in - - ()
Sea Level Pressure  
Sea Level Pressure 29.80 in    
Wind  
Wind Speed 5 mph ()    
Max Wind Speed 13 mph    
Max Gust Speed -    
Visibility 7.9 miles    
Events Rain    
Averages and records for this station are not official NWS values.
T = Trace of Precipitation, MM = Missing Value Source: Averaged Metar Reports

Daily Weather History Graph

Daily Weather History Graph

Search for Another Location

Airport or City:

Astronomy

Nov. 19, 2019 Rise Set
Actual Time 6:46 AM EST 4:36 PM EST
Civil Twilight 6:17 AM EST 5:06 PM EST
Nautical Twilight 5:43 AM EST 5:39 PM EST
Astronomical Twilight 5:11 AM EST 6:11 PM EST
Moon 11:29 PM EST (11/19) 12:55 PM EST (11/19)
Length of Visible Light 10h 49m
Length of Day
9h 50m
Waning Gibbous, 52% of the Moon is Illuminated
Nov 19
Waning Gibbous
Nov 19
Last Quarter
Nov 26
New
Dec 4
First Quarter
Dec 12
Full

Hourly Weather History & Observations

Time (EST) Temp. Windchill Dew Point Humidity Pressure Visibility Wind Dir Wind Speed Gust Speed Precip Events Conditions
12:56 AM 39.9 °F 37.8 °F 39.9 °F 100% 29.73 in 7.0 mi WSW 3.5 mph - 0.03 in Rain Light Rain
1:08 AM 39.2 °F 35.9 °F 39.2 °F 100% 29.73 in 5.0 mi WSW 4.6 mph - 0.02 in Rain Light Rain
1:56 AM 39.9 °F 36.7 °F 39.9 °F 100% 29.73 in 10.0 mi West 4.6 mph - 0.04 in Rain Light Rain
2:56 AM 41.0 °F 36.4 °F 39.9 °F 96% 29.75 in 10.0 mi WSW 6.9 mph - 0.00 in   Overcast
3:56 AM 41.0 °F 37.1 °F 39.9 °F 96% 29.75 in 10.0 mi West 5.8 mph - N/A   Overcast
4:26 AM 39.2 °F 37.0 °F 39.2 °F 100% 29.74 in 8.0 mi SW 3.5 mph - N/A   Overcast
4:56 AM 39.9 °F 37.8 °F 39.9 °F 100% 29.76 in 5.0 mi SW 3.5 mph - N/A   Overcast
5:56 AM 39.9 °F 36.7 °F 39.0 °F 97% 29.78 in 4.0 mi SSW 4.6 mph - N/A   Overcast
6:56 AM 39.0 °F 35.7 °F 39.0 °F 100% 29.80 in 3.0 mi SSW 4.6 mph - N/A   Scattered Clouds
7:27 AM 39.2 °F 35.9 °F 39.2 °F 100% 29.79 in 2.5 mi SW 4.6 mph - N/A   Mostly Cloudy
7:56 AM 39.9 °F 35.8 °F 39.0 °F 97% 29.81 in 2.0 mi WSW 5.8 mph - N/A   Clear
8:22 AM 39.2 °F 35.0 °F 39.2 °F 100% 29.80 in 2.5 mi SSW 5.8 mph - 0.01 in   Partly Cloudy
8:38 AM 41.0 °F 37.1 °F 39.2 °F 93% 29.81 in 3.0 mi SW 5.8 mph - 0.01 in   Partly Cloudy
8:56 AM 43.0 °F 38.8 °F 41.0 °F 93% 29.82 in 4.0 mi WSW 6.9 mph - 0.01 in   Scattered Clouds
9:56 AM 45.0 °F 40.1 °F 39.9 °F 82% 29.82 in 9.0 mi West 9.2 mph - N/A   Partly Cloudy
10:56 AM 46.9 °F - 39.0 °F 74% 29.81 in 10.0 mi West 9.2 mph - N/A   Mostly Cloudy
11:21 AM 48.2 °F - 39.2 °F 71% 29.80 in 10.0 mi West 8.1 mph - N/A   Scattered Clouds
11:56 AM 50.0 °F - 39.0 °F 66% 29.79 in 10.0 mi WNW 11.5 mph - N/A   Clear
12:56 PM 51.1 °F - 39.0 °F 63% 29.79 in 10.0 mi WSW 10.4 mph - N/A   Partly Cloudy
1:56 PM 51.1 °F - 37.9 °F 61% 29.79 in 10.0 mi West 12.7 mph - N/A   Clear
2:27 PM 50.0 °F - 37.4 °F 62% 29.79 in 10.0 mi WNW 9.2 mph - N/A   Mostly Cloudy
2:48 PM 50.0 °F - 37.4 °F 62% 29.80 in 10.0 mi West 8.1 mph - N/A   Scattered Clouds
2:56 PM 48.9 °F - 37.0 °F 64% 29.81 in 10.0 mi West 8.1 mph - N/A   Partly Cloudy
3:56 PM 46.9 °F - 37.9 °F 71% 29.81 in 10.0 mi WNW 8.1 mph - N/A   Clear
4:56 PM 45.0 °F 40.6 °F 37.0 °F 74% 29.83 in 10.0 mi NW 8.1 mph - N/A   Clear
5:56 PM 43.0 °F 40.3 °F 37.0 °F 80% 29.87 in 10.0 mi West 4.6 mph - N/A   Clear
6:56 PM 43.0 °F - 36.0 °F 76% 29.88 in 10.0 mi Calm Calm - N/A   Clear
8:56 PM 41.0 °F - 36.0 °F 82% 29.89 in 10.0 mi Calm Calm - N/A   Clear
9:56 PM 41.0 °F 38.0 °F 36.0 °F 82% 29.89 in 10.0 mi North 4.6 mph - N/A   Clear
10:56 PM 39.9 °F 36.7 °F 36.0 °F 86% 29.88 in 10.0 mi NW 4.6 mph - N/A   Mostly Cloudy
11:56 PM 39.9 °F 36.7 °F 36.0 °F 86% 29.87 in 10.0 mi NNW 4.6 mph - N/A   Mostly Cloudy